Home   Weather   Palma   Past weeks

Flag for Spain Past Weather in Palma, Majorca, Spain — Yesterday and Last 2 Weeks

63 °F

Rain. Passing clouds.

Feels Like: 63 °F
Forecast: 62 / 68 °F
Wind: 5 mph from Northeast

Location: Palma De Mallorca / Son San Juan

Current Time: Oct 20, 2016 at 11:33:06 PM

Latest Report: Oct 20, 2016 at 11:00 PM

Visibility: N/A

Pressure: 29.92 "Hg

Humidity: 94%

Dew Point: 61 °F

Location of PalmaLocation

Past Weather in Palma — Graph


Palma Temperature Yesterday

Maximum temperature yesterday: 73 °F (at 1:30 PM)
Minimum temperature yesterday: 55 °F (at 4:30 AM)
Average temperature yesterday: 65 °F

High & Low Weather Summary for the Past Weeks

High82 °F (Oct 17, 2:00 PM)100% (Oct 6, 7:30 AM)30.24 "Hg (Oct 6, 7:30 AM)
Low55 °F (Oct 12, 8:00 AM)48% (Oct 16, 1:30 PM)29.53 "Hg (Oct 14, 5:00 AM)
Average68 °F80%29.97 "Hg
* Reported Oct 5 10:00 PM — Oct 20 10:30 PM, Palma, Weather by CustomWeather, © 2016

Note: Actual official high and low records may vary slightly from our data, if they occured in-between our weather recording intervals... More about our weather records


Palma Weather History for the Previous 24 Hours

Scroll right to see more
Time TempWeatherWind HumidityBarometerVisibility
10:30 PM
Thu, Oct 20
63 °FRain. Passing clouds.3 mph94%29.92 "HgN/A
10:00 PM63 °FLight rain. Passing clouds.3 mph94%29.92 "HgN/A
9:30 PM64 °FLight rain. Passing clouds.2 mph88%29.92 "HgN/A
9:00 PM64 °FLight rain. Passing clouds.7 mph88%29.95 "HgN/A
8:30 PM64 °FLight rain. Passing clouds.6 mph88%29.95 "HgN/A
8:00 PM64 °FPassing clouds.5 mph88%29.95 "HgN/A
7:30 PM66 °FPassing clouds.2 mph83%29.95 "HgN/A
7:00 PM66 °FScattered clouds.7 mph83%29.95 "HgN/A
6:30 PM66 °FScattered clouds.9 mph83%29.95 "HgN/A
6:00 PM66 °FScattered clouds.7 mph83%29.95 "HgN/A
5:30 PM66 °FScattered clouds.8 mph83%29.95 "HgN/A
5:00 PM66 °FScattered clouds.9 mph83%29.95 "HgN/A
4:30 PM66 °FScattered clouds.9 mph83%29.95 "HgN/A
4:00 PM66 °FScattered clouds.8 mph83%29.95 "HgN/A
3:30 PM66 °FScattered clouds.9 mph88%29.95 "HgN/A
3:00 PM66 °FScattered clouds.10 mph88%29.98 "HgN/A
2:30 PM66 °FScattered clouds.10 mph83%29.98 "HgN/A
2:00 PM64 °FBroken clouds.9 mph94%29.98 "Hg6 mi
1:30 PM64 °FLight rain. Scattered clouds.12 mph94%29.98 "Hg2 mi
1:00 PM64 °FScattered clouds.10 mph88%30.01 "Hg6 mi
12:30 PM66 °FScattered clouds.9 mph88%30.01 "Hg6 mi
12:00 PM66 °FLight rain. Scattered clouds.10 mph88%30.01 "Hg6 mi
11:30 AM66 °FLight rain. Scattered clouds.9 mph88%30.01 "Hg6 mi
11:00 AM66 °FLight rain. Scattered clouds.7 mph88%30.01 "Hg6 mi
10:30 AM64 °FLight rain. Scattered clouds.8 mph94%30.01 "Hg6 mi
10:00 AM64 °FScattered clouds.7 mph94%30.01 "HgN/A
9:30 AM64 °FScattered clouds.5 mph94%29.98 "HgN/A
9:00 AM63 °FScattered clouds.6 mph100%29.98 "HgN/A
8:30 AM63 °FScattered clouds.7 mph94%29.98 "HgN/A
8:00 AM63 °FPassing clouds.3 mph100%29.98 "HgN/A
7:30 AM63 °FPassing clouds.1 mph94%29.98 "HgN/A
7:00 AM63 °FPassing clouds.1 mph100%29.98 "HgN/A
6:30 AM63 °FPassing clouds.1 mph100%29.98 "HgN/A
6:00 AM63 °FPassing clouds.2 mph100%29.98 "HgN/A
5:30 AM63 °FPassing clouds.No wind100%29.98 "HgN/A
5:00 AM63 °FPassing clouds.1 mph100%29.98 "HgN/A
4:30 AM63 °FPassing clouds.1 mph100%29.98 "HgN/A
4:00 AM63 °FLight rain. Passing clouds.No wind100%30.01 "HgN/A
3:30 AM63 °FPassing clouds.No wind100%30.01 "HgN/A
3:00 AM63 °FPassing clouds.3 mph100%30.01 "HgN/A
2:30 AM64 °FPassing clouds.1 mph94%30.04 "HgN/A
2:00 AM64 °FPassing clouds.No wind94%30.04 "HgN/A
1:30 AM64 °FPassing clouds.2 mph94%30.04 "HgN/A
1:00 AM64 °FPassing clouds.5 mph94%30.04 "HgN/A
12:30 AM64 °FPassing clouds.3 mph94%30.07 "HgN/A
12:00 AM63 °FPassing clouds.7 mph100%30.07 "HgN/A
11:30 PM
Wed, Oct 19
63 °FLight rain. Passing clouds.6 mph100%30.07 "Hg6 mi
11:00 PM63 °FLight rain. Passing clouds.5 mph100%30.07 "Hg5 mi
Weather by CustomWeather, © 2016

See weather overviewHow to use our weather pages